Time,TemperatureF,DewpointF,PressureIn,WindDirection,WindDirectionDegrees,WindSpeedMPH,WindSpeedGustMPH,Humidity,HourlyPrecipIn,Conditions,Clouds,dailyrainin,SoftwareType,DateUTC
2013-08-31 00:01:00,66.4,51.1,29.14,North,0,0.0,0.0,58,0.00,,,0.00,meteohub,2013-08-31 04:01:00,
2013-08-31 00:02:00,66.2,50.9,29.14,North,0,0.0,0.0,58,0.00,,,0.00,meteohub,2013-08-31 04:02:00,
2013-08-31 00:03:00,66.2,50.9,29.14,North,0,0.0,0.0,58,0.00,,,0.00,meteohub,2013-08-31 04:03:00,
2013-08-31 00:08:00,66.0,50.9,29.14,North,0,0.0,0.0,58,0.00,,,0.00,meteohub,2013-08-31 04:08:00,
2013-08-31 00:13:00,65.7,50.5,29.14,North,0,0.0,0.0,58,0.00,,,0.00,meteohub,2013-08-31 04:13:00,
2013-08-31 00:18:00,65.5,49.8,29.14,North,0,0.0,0.0,57,0.00,,,0.00,meteohub,2013-08-31 04:18:00,
2013-08-31 00:23:00,65.3,49.6,29.14,North,0,0.0,0.0,57,0.00,,,0.00,meteohub,2013-08-31 04:23:00,
2013-08-31 00:28:00,65.1,49.5,29.14,North,0,0.0,0.0,57,0.00,,,0.00,meteohub,2013-08-31 04:28:00,
2013-08-31 00:33:00,64.9,49.3,29.14,North,0,0.0,0.0,57,0.00,,,0.00,meteohub,2013-08-31 04:33:00,
2013-08-31 00:38:00,64.8,49.1,29.14,North,0,0.0,0.0,57,0.00,,,0.00,meteohub,2013-08-31 04:38:00,
2013-08-31 00:43:00,64.6,48.9,29.14,North,0,0.0,0.0,57,0.00,,,0.00,meteohub,2013-08-31 04:43:00,
2013-08-31 00:48:00,64.4,48.4,29.14,North,0,0.0,0.0,56,0.00,,,0.00,meteohub,2013-08-31 04:48:00,
2013-08-31 00:53:00,64.2,48.7,29.14,North,0,0.0,0.0,57,0.00,,,0.00,meteohub,2013-08-31 04:53:00,
2013-08-31 00:58:00,63.9,48.4,29.14,North,0,0.0,0.0,57,0.00,,,0.00,meteohub,2013-08-31 04:58:00,
2013-08-31 01:03:00,63.9,47.8,29.14,North,0,0.0,0.0,56,0.00,,,0.00,meteohub,2013-08-31 05:03:00,
2013-08-31 01:08:00,63.9,47.8,29.14,North,0,0.0,0.0,56,0.00,,,0.00,meteohub,2013-08-31 05:08:00,
2013-08-31 01:13:00,63.9,47.8,29.14,North,0,0.0,0.0,56,0.00,,,0.00,meteohub,2013-08-31 05:13:00,
2013-08-31 01:18:00,63.9,47.3,29.14,North,0,0.0,0.0,55,0.00,,,0.00,meteohub,2013-08-31 05:18:00,
2013-08-31 01:23:00,63.9,47.3,29.14,North,0,0.0,0.0,55,0.00,,,0.00,meteohub,2013-08-31 05:23:00,
2013-08-31 01:28:00,63.9,47.3,29.14,North,0,0.0,0.0,55,0.00,,,0.00,meteohub,2013-08-31 05:28:00,
2013-08-31 01:33:00,63.9,47.3,29.14,North,0,0.0,0.0,55,0.00,,,0.00,meteohub,2013-08-31 05:33:00,
2013-08-31 01:38:00,63.9,46.9,29.14,North,0,0.0,0.0,54,0.00,,,0.00,meteohub,2013-08-31 05:38:00,
2013-08-31 01:43:00,64.0,47.1,29.14,North,0,0.0,0.0,54,0.00,,,0.00,meteohub,2013-08-31 05:43:00,
2013-08-31 01:48:00,64.2,47.3,29.14,North,0,0.0,0.0,54,0.00,,,0.00,meteohub,2013-08-31 05:48:00,
2013-08-31 01:53:00,64.2,47.3,29.14,North,0,0.0,0.0,54,0.00,,,0.00,meteohub,2013-08-31 05:53:00,
2013-08-31 01:58:00,64.6,46.6,29.14,North,0,0.0,0.0,52,0.00,,,0.00,meteohub,2013-08-31 05:58:00,
2013-08-31 02:03:00,64.9,46.9,29.14,North,0,0.0,0.0,52,0.00,,,0.00,meteohub,2013-08-31 06:03:00,
2013-08-31 02:08:00,65.1,46.6,29.14,North,0,0.0,0.0,51,0.00,,,0.00,meteohub,2013-08-31 06:08:00,
2013-08-31 02:13:00,65.3,46.8,29.14,North,0,0.0,0.0,51,0.00,,,0.00,meteohub,2013-08-31 06:13:00,
2013-08-31 02:18:00,65.3,46.8,29.14,North,0,0.0,0.0,51,0.00,,,0.00,meteohub,2013-08-31 06:18:00,
2013-08-31 02:23:00,65.3,46.8,29.14,North,0,0.0,0.0,51,0.00,,,0.00,meteohub,2013-08-31 06:23:00,
2013-08-31 02:28:00,65.1,46.6,29.14,North,0,0.0,0.0,51,0.00,,,0.00,meteohub,2013-08-31 06:28:00,
2013-08-31 02:33:00,64.9,46.9,29.14,North,0,0.0,0.0,52,0.00,,,0.00,meteohub,2013-08-31 06:33:00,
2013-08-31 02:38:00,64.8,46.8,29.14,North,0,0.0,0.0,52,0.00,,,0.00,meteohub,2013-08-31 06:38:00,
2013-08-31 02:43:00,64.8,46.8,29.14,North,0,0.0,0.0,52,0.00,,,0.00,meteohub,2013-08-31 06:43:00,
2013-08-31 02:48:00,64.8,46.8,29.14,North,0,0.0,0.0,52,0.00,,,0.00,meteohub,2013-08-31 06:48:00,
2013-08-31 02:53:00,64.8,46.8,29.14,North,0,0.0,0.0,52,0.00,,,0.00,meteohub,2013-08-31 06:53:00,
2013-08-31 02:59:00,64.8,46.8,29.14,North,0,0.0,0.0,52,0.00,,,0.00,meteohub,2013-08-31 06:59:00,
2013-08-31 03:04:00,64.8,46.2,29.14,North,0,0.0,0.0,51,0.00,,,0.00,meteohub,2013-08-31 07:04:00,
2013-08-31 03:09:00,64.8,46.2,29.14,North,0,0.0,0.0,51,0.00,,,0.00,meteohub,2013-08-31 07:09:00,
2013-08-31 03:14:00,64.8,46.2,29.14,North,0,0.0,0.0,51,0.00,,,0.00,meteohub,2013-08-31 07:14:00,
2013-08-31 03:19:00,64.6,46.6,29.14,North,0,0.0,0.0,52,0.00,,,0.00,meteohub,2013-08-31 07:19:00,
2013-08-31 03:24:00,64.4,46.4,29.14,North,0,0.0,0.0,52,0.00,,,0.00,meteohub,2013-08-31 07:24:00,
2013-08-31 03:29:00,64.2,46.2,29.14,North,0,0.0,0.0,52,0.00,,,0.00,meteohub,2013-08-31 07:29:00,
2013-08-31 03:34:00,64.0,46.0,29.14,North,0,0.0,0.0,52,0.00,,,0.00,meteohub,2013-08-31 07:34:00,
2013-08-31 03:39:00,63.9,45.9,29.14,North,0,0.0,0.0,52,0.00,,,0.00,meteohub,2013-08-31 07:39:00,
2013-08-31 03:44:00,63.9,45.9,29.14,North,0,0.0,0.0,52,0.00,,,0.00,meteohub,2013-08-31 07:44:00,
2013-08-31 03:49:00,63.9,45.9,29.14,North,0,0.0,0.0,52,0.00,,,0.00,meteohub,2013-08-31 07:49:00,
2013-08-31 03:54:00,63.9,45.9,29.14,North,0,0.0,0.0,52,0.00,,,0.00,meteohub,2013-08-31 07:54:00,
2013-08-31 03:59:00,63.9,45.9,29.14,North,0,0.0,0.0,52,0.00,,,0.00,meteohub,2013-08-31 07:59:00,
2013-08-31 04:04:00,63.9,45.3,29.14,North,0,0.0,0.0,51,0.00,,,0.00,meteohub,2013-08-31 08:04:00,
2013-08-31 04:09:00,64.0,45.5,29.14,North,0,0.0,0.0,51,0.00,,,0.00,meteohub,2013-08-31 08:09:00,
2013-08-31 04:14:00,64.2,45.7,29.14,North,0,0.0,0.0,51,0.00,,,0.00,meteohub,2013-08-31 08:14:00,
2013-08-31 04:19:00,64.2,45.7,29.14,North,0,0.0,0.0,51,0.00,,,0.00,meteohub,2013-08-31 08:19:00,
2013-08-31 04:24:00,64.4,45.9,29.14,North,0,0.0,0.0,51,0.00,,,0.00,meteohub,2013-08-31 08:24:00,
2013-08-31 04:29:00,64.4,45.9,29.14,North,0,0.0,0.0,51,0.00,,,0.00,meteohub,2013-08-31 08:29:00,
2013-08-31 04:34:00,64.4,45.9,29.14,North,0,0.0,0.0,51,0.00,,,0.00,meteohub,2013-08-31 08:34:00,
2013-08-31 04:39:00,64.6,46.0,29.14,North,0,0.0,0.0,51,0.00,,,0.00,meteohub,2013-08-31 08:39:00,
2013-08-31 04:44:00,64.6,46.0,29.14,North,0,0.0,0.0,51,0.00,,,0.00,meteohub,2013-08-31 08:44:00,
2013-08-31 04:49:00,64.6,46.0,29.14,North,0,0.0,0.0,51,0.00,,,0.00,meteohub,2013-08-31 08:49:00,
2013-08-31 04:54:00,64.6,46.0,29.14,North,0,0.0,0.0,51,0.00,,,0.00,meteohub,2013-08-31 08:54:00,
2013-08-31 04:59:00,64.4,45.9,29.14,North,0,0.0,0.0,51,0.00,,,0.00,meteohub,2013-08-31 08:59:00,
2013-08-31 05:04:00,64.6,46.0,29.14,North,0,0.0,0.0,51,0.00,,,0.00,meteohub,2013-08-31 09:04:00,
2013-08-31 05:09:00,64.6,46.0,29.14,North,0,0.0,0.0,51,0.00,,,0.00,meteohub,2013-08-31 09:09:00,
2013-08-31 05:14:00,64.6,46.0,29.14,North,0,0.0,0.0,51,0.00,,,0.00,meteohub,2013-08-31 09:14:00,
2013-08-31 05:19:00,64.6,46.0,29.14,North,0,0.0,0.0,51,0.00,,,0.00,meteohub,2013-08-31 09:19:00,
2013-08-31 05:24:00,64.6,46.0,29.14,North,0,0.0,0.0,51,0.00,,,0.00,meteohub,2013-08-31 09:24:00,
2013-08-31 05:29:00,64.6,46.0,29.14,North,0,0.0,0.0,51,0.00,,,0.00,meteohub,2013-08-31 09:29:00,
2013-08-31 05:34:00,64.6,46.6,29.14,North,0,0.0,0.0,52,0.00,,,0.00,meteohub,2013-08-31 09:34:00,
2013-08-31 05:39:00,64.4,46.4,29.14,North,0,0.0,0.0,52,0.00,,,0.00,meteohub,2013-08-31 09:39:00,
2013-08-31 05:44:00,64.4,46.4,29.14,North,0,0.0,0.0,52,0.00,,,0.00,meteohub,2013-08-31 09:44:00,
2013-08-31 05:49:00,64.2,46.8,29.14,North,0,0.0,0.0,53,0.00,,,0.00,meteohub,2013-08-31 09:49:00,
2013-08-31 05:54:00,64.2,46.8,29.14,North,0,0.0,0.0,53,0.00,,,0.00,meteohub,2013-08-31 09:54:00,
2013-08-31 05:59:00,64.0,46.6,29.14,North,0,0.0,0.0,53,0.00,,,0.00,meteohub,2013-08-31 09:59:00,
2013-08-31 06:04:00,63.9,46.4,29.14,North,0,0.0,0.0,53,0.00,,,0.00,meteohub,2013-08-31 10:04:00,
2013-08-31 06:09:00,63.9,46.4,29.14,North,0,0.0,0.0,53,0.00,,,0.00,meteohub,2013-08-31 10:09:00,
2013-08-31 06:14:00,63.7,46.2,29.14,North,0,0.0,0.0,53,0.00,,,0.00,meteohub,2013-08-31 10:14:00,
2013-08-31 06:19:00,63.5,46.0,29.14,North,0,0.0,0.0,53,0.00,,,0.00,meteohub,2013-08-31 10:19:00,
2013-08-31 06:24:00,63.5,46.0,29.14,North,0,0.0,0.0,53,0.00,,,0.00,meteohub,2013-08-31 10:24:00,
2013-08-31 06:29:00,63.3,45.9,29.14,North,0,0.0,0.0,53,0.00,,,0.00,meteohub,2013-08-31 10:29:00,
2013-08-31 06:34:00,63.3,45.9,29.14,North,0,0.0,0.0,53,0.00,,,0.00,meteohub,2013-08-31 10:34:00,
2013-08-31 06:39:00,63.3,45.9,29.14,North,0,0.0,0.0,53,0.00,,,0.00,meteohub,2013-08-31 10:39:00,
2013-08-31 06:44:00,63.3,45.9,29.14,North,0,0.0,0.0,53,0.00,,,0.00,meteohub,2013-08-31 10:44:00,
2013-08-31 06:49:00,63.1,45.7,29.14,North,0,0.0,0.0,53,0.00,,,0.00,meteohub,2013-08-31 10:49:00,
2013-08-31 06:54:00,63.0,45.5,29.14,North,0,0.0,0.0,53,0.00,,,0.00,meteohub,2013-08-31 10:54:00,
2013-08-31 06:59:00,62.6,45.7,29.14,North,0,0.0,0.0,54,0.00,,,0.00,meteohub,2013-08-31 10:59:00,
2013-08-31 07:04:00,62.2,45.0,29.14,North,0,0.0,0.0,53,0.00,,,0.00,meteohub,2013-08-31 11:04:00,
2013-08-31 07:09:00,62.1,44.8,29.14,North,0,0.0,0.0,53,0.00,,,0.00,meteohub,2013-08-31 11:09:00,
2013-08-31 07:14:00,61.9,44.6,29.14,North,0,0.0,0.0,53,0.00,,,0.00,meteohub,2013-08-31 11:14:00,
2013-08-31 07:19:00,61.5,44.8,29.14,North,0,0.0,0.0,54,0.00,,,0.00,meteohub,2013-08-31 11:19:00,
2013-08-31 07:24:00,61.3,44.6,29.14,North,0,0.0,0.0,54,0.00,,,0.00,meteohub,2013-08-31 11:24:00,
2013-08-31 07:29:00,61.2,44.4,29.14,North,0,0.0,0.0,54,0.00,,,0.00,meteohub,2013-08-31 11:29:00,
2013-08-31 07:34:00,61.0,44.2,29.14,North,0,0.0,0.0,54,0.00,,,0.00,meteohub,2013-08-31 11:34:00,
2013-08-31 07:39:00,61.0,44.2,29.14,North,0,0.0,0.0,54,0.00,,,0.00,meteohub,2013-08-31 11:39:00,
2013-08-31 07:44:00,60.8,44.1,29.14,North,0,0.0,0.0,54,0.00,,,0.00,meteohub,2013-08-31 11:44:00,
2013-08-31 07:49:00,60.8,43.5,29.14,North,0,0.0,0.0,53,0.00,,,0.00,meteohub,2013-08-31 11:49:00,
2013-08-31 07:54:00,60.6,43.3,29.14,North,0,0.0,0.0,53,0.00,,,0.00,meteohub,2013-08-31 11:54:00,
2013-08-31 07:59:00,60.8,43.5,29.14,North,0,0.0,0.0,53,0.00,,,0.00,meteohub,2013-08-31 11:59:00,
2013-08-31 08:04:00,60.8,43.5,29.14,North,0,0.0,0.0,53,0.00,,,0.00,meteohub,2013-08-31 12:04:00,
2013-08-31 08:09:00,61.0,43.7,29.14,North,0,0.0,0.0,53,0.00,,,0.00,meteohub,2013-08-31 12:09:00,
2013-08-31 08:14:00,61.0,43.7,29.14,North,0,0.0,0.0,53,0.00,,,0.00,meteohub,2013-08-31 12:14:00,
2013-08-31 08:19:00,61.2,43.3,29.14,North,0,0.0,0.0,52,0.00,,,0.00,meteohub,2013-08-31 12:19:00,
2013-08-31 08:24:00,61.3,43.5,29.14,North,0,0.0,0.0,52,0.00,,,0.00,meteohub,2013-08-31 12:24:00,
2013-08-31 08:29:00,61.5,43.7,29.14,North,0,0.0,0.0,52,0.00,,,0.00,meteohub,2013-08-31 12:29:00,
2013-08-31 08:34:00,61.9,44.1,29.14,North,0,0.0,0.0,52,0.00,,,0.00,meteohub,2013-08-31 12:34:00,
2013-08-31 08:40:00,62.1,43.7,29.14,North,0,0.0,0.0,51,0.00,,,0.00,meteohub,2013-08-31 12:40:00,
2013-08-31 08:45:00,62.2,44.4,29.14,North,0,0.0,0.0,52,0.00,,,0.00,meteohub,2013-08-31 12:45:00,
2013-08-31 08:50:00,62.6,44.8,29.14,North,0,0.0,0.0,52,0.00,,,0.00,meteohub,2013-08-31 12:50:00,
2013-08-31 08:55:00,63.0,44.6,29.14,North,0,0.0,0.0,51,0.00,,,0.00,meteohub,2013-08-31 12:55:00,
2013-08-31 09:00:00,63.3,45.0,29.14,North,0,0.0,0.0,51,0.00,,,0.00,meteohub,2013-08-31 13:00:00,
2013-08-31 09:05:00,63.7,45.1,29.14,North,0,0.0,0.0,51,0.00,,,0.00,meteohub,2013-08-31 13:05:00,
2013-08-31 09:10:00,63.9,45.3,29.14,North,0,0.0,0.0,51,0.00,,,0.00,meteohub,2013-08-31 13:10:00,
2013-08-31 09:15:00,64.4,45.9,29.14,North,0,0.0,0.0,51,0.00,,,0.00,meteohub,2013-08-31 13:15:00,
2013-08-31 09:20:00,65.1,46.0,29.14,North,0,0.0,0.0,50,0.00,,,0.00,meteohub,2013-08-31 13:20:00,
2013-08-31 09:25:00,66.0,46.8,29.14,North,0,0.0,0.0,50,0.00,,,0.00,meteohub,2013-08-31 13:25:00,
2013-08-31 09:30:00,66.7,48.0,29.14,North,0,0.0,0.0,51,0.00,,,0.00,meteohub,2013-08-31 13:30:00,
2013-08-31 09:35:00,66.7,49.1,29.14,North,0,0.0,0.0,53,0.00,,,0.00,meteohub,2013-08-31 13:35:00,
2013-08-31 09:40:00,67.1,49.8,29.14,North,0,0.0,0.0,54,0.00,,,0.00,meteohub,2013-08-31 13:40:00,
2013-08-31 09:45:00,67.5,51.6,29.14,North,0,0.0,0.0,57,0.00,,,0.00,meteohub,2013-08-31 13:45:00,
2013-08-31 09:50:00,67.6,51.8,29.14,North,0,0.0,0.0,57,0.00,,,0.00,meteohub,2013-08-31 13:50:00,
2013-08-31 09:55:00,68.2,52.3,29.14,North,0,0.0,0.0,57,0.00,,,0.00,meteohub,2013-08-31 13:55:00,
2013-08-31 10:00:00,68.9,53.1,29.14,North,0,0.0,0.0,57,0.00,,,0.00,meteohub,2013-08-31 14:00:00,
2013-08-31 10:05:00,69.4,54.0,29.14,North,0,0.0,0.0,58,0.00,,,0.00,meteohub,2013-08-31 14:05:00,
2013-08-31 10:10:00,69.6,54.7,29.14,North,0,0.0,0.0,59,0.00,,,0.00,meteohub,2013-08-31 14:10:00,
2013-08-31 10:15:00,70.3,55.8,29.14,North,0,0.0,0.0,60,0.00,,,0.00,meteohub,2013-08-31 14:15:00,
2013-08-31 10:20:00,70.3,56.3,29.14,North,0,0.0,0.0,61,0.00,,,0.00,meteohub,2013-08-31 14:20:00,
2013-08-31 10:25:00,70.2,56.1,29.14,North,0,0.0,0.0,61,0.00,,,0.00,meteohub,2013-08-31 14:25:00,
2013-08-31 10:30:00,69.8,55.8,29.14,North,0,0.0,0.0,61,0.00,,,0.00,meteohub,2013-08-31 14:30:00,
2013-08-31 10:35:00,69.6,55.6,29.14,North,0,0.0,0.0,61,0.00,,,0.00,meteohub,2013-08-31 14:35:00,
2013-08-31 10:40:00,69.6,55.0,29.14,North,0,0.0,0.0,60,0.00,,,0.00,meteohub,2013-08-31 14:40:00,
2013-08-31 10:45:00,69.6,55.0,29.14,North,0,0.0,0.0,60,0.00,,,0.00,meteohub,2013-08-31 14:45:00,
2013-08-31 10:50:00,69.3,54.9,29.14,North,0,0.0,0.0,60,0.00,,,0.00,meteohub,2013-08-31 14:50:00,
2013-08-31 10:55:00,69.6,55.0,29.14,North,0,0.0,0.0,60,0.00,,,0.00,meteohub,2013-08-31 14:55:00,
2013-08-31 11:00:00,69.6,55.0,29.14,North,0,0.0,0.0,60,0.00,,,0.00,meteohub,2013-08-31 15:00:00,
2013-08-31 11:05:00,70.3,55.8,29.14,North,0,0.0,0.0,60,0.00,,,0.00,meteohub,2013-08-31 15:05:00,
2013-08-31 11:10:00,70.7,56.7,29.14,North,0,0.0,0.0,61,0.00,,,0.00,meteohub,2013-08-31 15:10:00,
2013-08-31 11:15:00,71.2,57.0,29.14,North,0,0.0,0.0,61,0.00,,,0.00,meteohub,2013-08-31 15:15:00,
2013-08-31 11:20:00,71.6,57.4,29.14,North,0,0.0,0.0,61,0.00,,,0.00,meteohub,2013-08-31 15:20:00,
2013-08-31 11:25:00,72.1,58.5,29.14,North,0,0.0,0.0,62,0.00,,,0.00,meteohub,2013-08-31 15:25:00,
2013-08-31 11:30:00,71.6,57.9,29.14,North,0,0.0,0.0,62,0.00,,,0.00,meteohub,2013-08-31 15:30:00,
2013-08-31 11:35:00,71.2,57.6,29.14,North,0,0.0,0.0,62,0.00,,,0.00,meteohub,2013-08-31 15:35:00,
2013-08-31 11:40:00,71.1,57.4,29.14,North,0,0.0,0.0,62,0.00,,,0.00,meteohub,2013-08-31 15:40:00,
2013-08-31 11:45:00,70.9,56.8,29.14,North,0,0.0,0.0,61,0.00,,,0.00,meteohub,2013-08-31 15:45:00,
2013-08-31 11:50:00,70.7,56.7,29.14,North,0,0.0,0.0,61,0.00,,,0.00,meteohub,2013-08-31 15:50:00,
2013-08-31 11:55:00,70.7,56.7,29.14,North,0,0.0,0.0,61,0.00,,,0.00,meteohub,2013-08-31 15:55:00,
2013-08-31 12:00:00,71.1,56.8,29.14,North,0,0.0,0.0,61,0.00,,,0.00,meteohub,2013-08-31 16:00:00,
2013-08-31 12:06:00,71.4,57.2,29.14,North,0,0.0,0.0,61,0.00,,,0.00,meteohub,2013-08-31 16:06:00,
2013-08-31 12:11:00,71.6,57.9,29.14,North,0,0.0,0.0,62,0.00,,,0.00,meteohub,2013-08-31 16:11:00,
2013-08-31 12:16:00,71.6,57.9,29.14,North,0,0.0,0.0,62,0.00,,,0.00,meteohub,2013-08-31 16:16:00,
2013-08-31 12:21:00,71.6,57.4,29.14,North,0,0.0,0.0,61,0.00,,,0.00,meteohub,2013-08-31 16:21:00,
2013-08-31 12:26:00,71.8,58.1,29.14,North,0,0.0,0.0,62,0.00,,,0.00,meteohub,2013-08-31 16:26:00,
2013-08-31 12:31:00,72.0,58.3,29.14,North,0,0.0,0.0,62,0.00,,,0.00,meteohub,2013-08-31 16:31:00,
2013-08-31 12:36:00,72.1,58.8,29.14,North,0,0.0,0.0,63,0.00,,,0.00,meteohub,2013-08-31 16:36:00,
2013-08-31 12:41:00,72.5,58.8,29.14,North,0,0.0,0.0,62,0.00,,,0.00,meteohub,2013-08-31 16:41:00,
2013-08-31 12:46:00,72.9,59.0,29.14,North,0,0.0,0.0,62,0.00,,,0.00,meteohub,2013-08-31 16:46:00,
2013-08-31 12:51:00,72.9,59.0,29.14,North,0,0.0,0.0,62,0.00,,,0.00,meteohub,2013-08-31 16:51:00,
2013-08-31 12:56:00,72.7,58.5,29.14,North,0,0.0,0.0,61,0.00,,,0.00,meteohub,2013-08-31 16:56:00,
2013-08-31 13:01:00,72.9,58.6,29.14,North,0,0.0,0.0,61,0.00,,,0.00,meteohub,2013-08-31 17:01:00,
2013-08-31 13:06:00,73.2,59.0,29.14,North,0,0.0,0.0,61,0.00,,,0.00,meteohub,2013-08-31 17:06:00,
2013-08-31 13:11:00,73.6,59.4,29.14,North,0,0.0,0.0,61,0.00,,,0.00,meteohub,2013-08-31 17:11:00,
2013-08-31 13:16:00,74.3,60.4,29.14,North,0,0.0,0.0,62,0.00,,,0.00,meteohub,2013-08-31 17:16:00,
2013-08-31 13:21:00,74.8,61.3,29.14,North,0,0.0,0.0,63,0.00,,,0.00,meteohub,2013-08-31 17:21:00,
2013-08-31 13:26:00,75.0,61.5,29.14,North,0,0.0,0.0,63,0.00,,,0.00,meteohub,2013-08-31 17:26:00,
2013-08-31 13:31:00,75.4,61.9,29.14,North,0,0.0,0.0,63,0.00,,,0.00,meteohub,2013-08-31 17:31:00,
2013-08-31 13:36:00,75.4,61.5,29.14,North,0,0.0,0.0,62,0.00,,,0.00,meteohub,2013-08-31 17:36:00,
2013-08-31 13:41:00,75.4,61.9,29.14,North,0,0.0,0.0,63,0.00,,,0.00,meteohub,2013-08-31 17:41:00,
2013-08-31 13:46:00,75.6,62.1,29.14,North,0,0.0,0.0,63,0.00,,,0.00,meteohub,2013-08-31 17:46:00,
2013-08-31 13:51:00,75.9,62.4,29.14,North,0,0.0,0.0,63,0.00,,,0.00,meteohub,2013-08-31 17:51:00,
2013-08-31 13:56:00,75.9,62.8,29.14,North,0,0.0,0.0,64,0.00,,,0.00,meteohub,2013-08-31 17:56:00,
2013-08-31 14:01:00,76.1,63.0,29.14,North,0,0.0,0.0,64,0.00,,,0.00,meteohub,2013-08-31 18:01:00,
2013-08-31 14:06:00,75.9,62.8,29.14,North,0,0.0,0.0,64,0.00,,,0.00,meteohub,2013-08-31 18:06:00,
2013-08-31 14:11:00,75.9,62.8,29.14,North,0,0.0,0.0,64,0.00,,,0.00,meteohub,2013-08-31 18:11:00,
2013-08-31 14:16:00,76.1,63.0,29.14,North,0,0.0,0.0,64,0.00,,,0.00,meteohub,2013-08-31 18:16:00,
2013-08-31 14:21:00,76.1,63.0,29.14,North,0,0.0,0.0,64,0.00,,,0.00,meteohub,2013-08-31 18:21:00,
2013-08-31 14:26:00,76.1,63.5,29.14,North,0,0.0,0.0,65,0.00,,,0.00,meteohub,2013-08-31 18:26:00,
2013-08-31 14:31:00,75.6,63.0,29.14,North,0,0.0,0.0,65,0.00,,,0.00,meteohub,2013-08-31 18:31:00,
2013-08-31 14:36:00,75.4,62.8,29.14,North,0,0.0,0.0,65,0.00,,,0.00,meteohub,2013-08-31 18:36:00,
2013-08-31 14:42:00,75.6,63.0,29.14,North,0,0.0,0.0,65,0.00,,,0.00,meteohub,2013-08-31 18:42:00,
2013-08-31 14:47:00,75.7,63.1,29.14,North,0,0.0,0.0,65,0.00,,,0.00,meteohub,2013-08-31 18:47:00,
2013-08-31 14:52:00,75.7,63.1,29.14,North,0,0.0,0.0,65,0.00,,,0.00,meteohub,2013-08-31 18:52:00,
2013-08-31 14:57:00,75.9,63.3,29.14,North,0,0.0,0.0,65,0.00,,,0.00,meteohub,2013-08-31 18:57:00,
2013-08-31 15:02:00,76.1,63.9,29.14,North,0,0.0,0.0,66,0.00,,,0.00,meteohub,2013-08-31 19:02:00,
2013-08-31 15:07:00,76.6,64.4,29.14,North,0,0.0,0.0,66,0.00,,,0.00,meteohub,2013-08-31 19:07:00,
2013-08-31 15:12:00,76.8,64.6,29.14,North,0,0.0,0.0,66,0.00,,,0.00,meteohub,2013-08-31 19:12:00,
2013-08-31 15:17:00,77.0,64.8,29.14,North,0,0.0,0.0,66,0.00,,,0.00,meteohub,2013-08-31 19:17:00,
2013-08-31 15:22:00,76.8,64.6,29.14,North,0,0.0,0.0,66,0.00,,,0.00,meteohub,2013-08-31 19:22:00,
2013-08-31 15:27:00,76.6,64.4,29.14,North,0,0.0,0.0,66,0.00,,,0.00,meteohub,2013-08-31 19:27:00,
2013-08-31 15:32:00,76.5,64.8,29.14,North,0,0.0,0.0,67,0.00,,,0.00,meteohub,2013-08-31 19:32:00,
2013-08-31 15:37:00,76.3,64.6,29.14,North,0,0.0,0.0,67,0.00,,,0.00,meteohub,2013-08-31 19:37:00,
2013-08-31 15:42:00,76.5,65.1,29.14,North,0,0.0,0.0,68,0.00,,,0.00,meteohub,2013-08-31 19:42:00,
2013-08-31 15:47:00,76.5,65.1,29.14,North,0,0.0,0.0,68,0.00,,,0.00,meteohub,2013-08-31 19:47:00,
2013-08-31 15:52:00,76.6,65.3,29.14,North,0,0.0,0.0,68,0.00,,,0.00,meteohub,2013-08-31 19:52:00,
2013-08-31 15:57:00,76.6,65.3,29.14,North,0,0.0,0.0,68,0.00,,,0.00,meteohub,2013-08-31 19:57:00,
2013-08-31 16:02:00,76.5,65.1,29.14,North,0,0.0,0.0,68,0.00,,,0.00,meteohub,2013-08-31 20:02:00,
2013-08-31 16:07:00,76.8,65.5,29.14,North,0,0.0,0.0,68,0.00,,,0.00,meteohub,2013-08-31 20:07:00,
2013-08-31 16:12:00,77.0,65.7,29.14,North,0,0.0,0.0,68,0.00,,,0.00,meteohub,2013-08-31 20:12:00,
2013-08-31 16:17:00,77.0,65.7,29.14,North,0,0.0,0.0,68,0.00,,,0.00,meteohub,2013-08-31 20:17:00,
2013-08-31 16:22:00,77.4,66.0,29.14,North,0,0.0,0.0,68,0.00,,,0.00,meteohub,2013-08-31 20:22:00,
2013-08-31 16:27:00,77.5,65.7,29.14,North,0,0.0,0.0,67,0.00,,,0.00,meteohub,2013-08-31 20:27:00,
2013-08-31 16:32:00,77.5,65.7,29.14,North,0,0.0,0.0,67,0.00,,,0.00,meteohub,2013-08-31 20:32:00,
2013-08-31 16:37:00,77.5,65.7,29.14,North,0,0.0,0.0,67,0.00,,,0.00,meteohub,2013-08-31 20:37:00,
2013-08-31 16:42:00,77.5,66.2,29.14,North,0,0.0,0.0,68,0.00,,,0.00,meteohub,2013-08-31 20:42:00,
2013-08-31 16:47:00,77.5,66.2,29.14,North,0,0.0,0.0,68,0.00,,,0.00,meteohub,2013-08-31 20:47:00,
2013-08-31 16:52:00,77.0,65.7,29.14,North,0,0.0,0.0,68,0.00,,,0.00,meteohub,2013-08-31 20:52:00,
2013-08-31 16:57:00,76.8,65.8,29.14,North,0,0.0,0.0,69,0.00,,,0.00,meteohub,2013-08-31 20:57:00,
2013-08-31 17:02:00,77.2,66.2,29.14,North,0,0.0,0.0,69,0.00,,,0.00,meteohub,2013-08-31 21:02:00,
2013-08-31 17:07:00,77.4,66.4,29.14,North,0,0.0,0.0,69,0.00,,,0.00,meteohub,2013-08-31 21:07:00,
2013-08-31 17:12:00,77.2,66.2,29.14,North,0,0.0,0.0,69,0.00,,,0.00,meteohub,2013-08-31 21:12:00,
2013-08-31 17:17:00,77.0,66.0,29.14,North,0,0.0,0.0,69,0.00,,,0.00,meteohub,2013-08-31 21:17:00,
2013-08-31 17:22:00,76.8,65.8,29.14,North,0,0.0,0.0,69,0.00,,,0.00,meteohub,2013-08-31 21:22:00,
2013-08-31 17:27:00,76.3,65.3,29.14,North,0,0.0,0.0,69,0.00,,,0.00,meteohub,2013-08-31 21:27:00,
2013-08-31 17:32:00,76.3,65.3,29.14,North,0,0.0,0.0,69,0.00,,,0.00,meteohub,2013-08-31 21:32:00,
2013-08-31 17:37:00,76.1,65.1,29.14,North,0,0.0,0.0,69,0.00,,,0.00,meteohub,2013-08-31 21:37:00,
2013-08-31 17:42:00,76.5,66.0,29.14,North,0,0.0,0.0,70,0.00,,,0.00,meteohub,2013-08-31 21:42:00,
2013-08-31 17:47:00,76.6,65.7,29.14,North,0,0.0,0.0,69,0.00,,,0.00,meteohub,2013-08-31 21:47:00,
2013-08-31 17:52:00,76.5,65.5,29.14,North,0,0.0,0.0,69,0.00,,,0.00,meteohub,2013-08-31 21:52:00,
2013-08-31 17:57:00,76.6,65.7,29.14,North,0,0.0,0.0,69,0.00,,,0.00,meteohub,2013-08-31 21:57:00,
2013-08-31 18:02:00,76.8,66.2,29.14,North,0,0.0,0.0,70,0.00,,,0.00,meteohub,2013-08-31 22:02:00,
2013-08-31 18:07:00,76.8,65.8,29.14,North,0,0.0,0.0,69,0.00,,,0.00,meteohub,2013-08-31 22:07:00,
2013-08-31 18:12:00,76.6,65.7,29.14,North,0,0.0,0.0,69,0.00,,,0.00,meteohub,2013-08-31 22:12:00,
2013-08-31 18:17:00,76.5,65.5,29.14,North,0,0.0,0.0,69,0.00,,,0.00,meteohub,2013-08-31 22:17:00,
2013-08-31 18:22:00,76.1,65.1,29.14,North,0,0.0,0.0,69,0.00,,,0.00,meteohub,2013-08-31 22:22:00,
2013-08-31 18:27:00,76.1,65.7,29.14,North,0,0.0,0.0,70,0.00,,,0.00,meteohub,2013-08-31 22:27:00,
2013-08-31 18:32:00,76.3,65.8,29.14,North,0,0.0,0.0,70,0.00,,,0.00,meteohub,2013-08-31 22:32:00,
2013-08-31 18:37:00,76.5,66.0,29.14,North,0,0.0,0.0,70,0.00,,,0.00,meteohub,2013-08-31 22:37:00,
2013-08-31 18:43:00,76.3,65.8,29.14,North,0,0.0,0.0,70,0.00,,,0.00,meteohub,2013-08-31 22:43:00,
2013-08-31 18:48:00,75.4,64.9,29.14,North,0,0.0,0.0,70,0.00,,,0.00,meteohub,2013-08-31 22:48:00,
2013-08-31 18:53:00,75.0,64.9,29.14,North,0,0.0,0.0,71,0.00,,,0.00,meteohub,2013-08-31 22:53:00,
2013-08-31 18:58:00,74.8,64.8,29.14,North,0,0.0,0.0,71,0.00,,,0.00,meteohub,2013-08-31 22:58:00,
2013-08-31 19:03:00,74.7,65.1,29.14,North,0,0.0,0.0,72,0.00,,,0.00,meteohub,2013-08-31 23:03:00,
2013-08-31 19:08:00,74.1,64.6,29.14,North,0,0.0,0.0,72,0.00,,,0.00,meteohub,2013-08-31 23:08:00,
2013-08-31 19:13:00,73.6,64.0,29.14,North,0,0.0,0.0,72,0.00,,,0.00,meteohub,2013-08-31 23:13:00,
2013-08-31 19:18:00,73.0,63.5,29.14,North,0,0.0,0.0,72,0.00,,,0.00,meteohub,2013-08-31 23:18:00,
2013-08-31 19:23:00,72.7,63.5,29.14,North,0,0.0,0.0,73,0.00,,,0.00,meteohub,2013-08-31 23:23:00,
2013-08-31 19:28:00,72.3,63.1,29.14,North,0,0.0,0.0,73,0.00,,,0.00,meteohub,2013-08-31 23:28:00,
2013-08-31 19:33:00,72.1,63.0,29.14,North,0,0.0,0.0,73,0.00,,,0.00,meteohub,2013-08-31 23:33:00,
2013-08-31 19:38:00,71.8,62.6,29.14,North,0,0.0,0.0,73,0.00,,,0.00,meteohub,2013-08-31 23:38:00,
2013-08-31 19:43:00,71.2,62.1,29.14,North,0,0.0,0.0,73,0.00,,,0.00,meteohub,2013-08-31 23:43:00,
2013-08-31 19:48:00,71.1,61.9,29.14,North,0,0.0,0.0,73,0.00,,,0.00,meteohub,2013-08-31 23:48:00,
2013-08-31 19:53:00,70.7,61.7,29.14,North,0,0.0,0.0,73,0.00,,,0.00,meteohub,2013-08-31 23:53:00,
2013-08-31 19:58:00,70.2,61.2,29.14,North,0,0.0,0.0,73,0.00,,,0.00,meteohub,2013-08-31 23:58:00,
2013-08-31 20:03:00,69.8,60.8,29.14,North,0,0.0,0.0,73,0.00,,,0.00,meteohub,2013-09-01 00:03:00,
2013-08-31 20:08:00,69.4,60.4,29.14,North,0,0.0,0.0,73,0.00,,,0.00,meteohub,2013-09-01 00:08:00,
2013-08-31 20:13:00,69.1,60.4,29.14,North,0,0.0,0.0,74,0.00,,,0.00,meteohub,2013-09-01 00:13:00,
2013-08-31 20:18:00,68.5,59.9,29.14,North,0,0.0,0.0,74,0.00,,,0.00,meteohub,2013-09-01 00:18:00,
2013-08-31 20:23:00,68.2,59.5,29.14,North,0,0.0,0.0,74,0.00,,,0.00,meteohub,2013-09-01 00:23:00,
2013-08-31 20:28:00,67.8,58.8,29.14,North,0,0.0,0.0,73,0.00,,,0.00,meteohub,2013-09-01 00:28:00,
2013-08-31 20:33:00,67.5,58.5,29.14,North,0,0.0,0.0,73,0.00,,,0.00,meteohub,2013-09-01 00:33:00,
2013-08-31 20:38:00,67.1,58.1,29.14,North,0,0.0,0.0,73,0.00,,,0.00,meteohub,2013-09-01 00:38:00,
2013-08-31 20:43:00,66.7,57.4,29.14,North,0,0.0,0.0,72,0.00,,,0.00,meteohub,2013-09-01 00:43:00,
2013-08-31 20:48:00,66.2,56.8,29.14,North,0,0.0,0.0,72,0.00,,,0.00,meteohub,2013-09-01 00:48:00,
2013-08-31 20:53:00,65.8,56.5,29.14,North,0,0.0,0.0,72,0.00,,,0.00,meteohub,2013-09-01 00:53:00,
2013-08-31 20:58:00,65.5,55.8,29.14,North,0,0.0,0.0,71,0.00,,,0.00,meteohub,2013-09-01 00:58:00,
2013-08-31 21:03:00,65.1,55.4,29.14,North,0,0.0,0.0,71,0.00,,,0.00,meteohub,2013-09-01 01:03:00,
2013-08-31 21:09:00,64.8,55.2,29.14,North,0,0.0,0.0,71,0.00,,,0.00,meteohub,2013-09-01 01:09:00,
2013-08-31 21:14:00,64.4,54.3,29.14,North,0,0.0,0.0,70,0.00,,,0.00,meteohub,2013-09-01 01:14:00,
2013-08-31 21:19:00,64.2,53.8,29.14,North,0,0.0,0.0,69,0.00,,,0.00,meteohub,2013-09-01 01:19:00,
2013-08-31 21:24:00,64.0,53.6,29.14,North,0,0.0,0.0,69,0.00,,,0.00,meteohub,2013-09-01 01:24:00,
2013-08-31 21:29:00,63.9,53.1,29.14,North,0,0.0,0.0,68,0.00,,,0.00,meteohub,2013-09-01 01:29:00,
2013-08-31 21:34:00,63.5,52.3,29.14,North,0,0.0,0.0,67,0.00,,,0.00,meteohub,2013-09-01 01:34:00,
2013-08-31 21:39:00,63.5,52.3,29.14,North,0,0.0,0.0,67,0.00,,,0.00,meteohub,2013-09-01 01:39:00,
2013-08-31 21:44:00,63.1,51.6,29.14,North,0,0.0,0.0,66,0.00,,,0.00,meteohub,2013-09-01 01:44:00,
2013-08-31 21:49:00,63.1,51.6,29.14,North,0,0.0,0.0,66,0.00,,,0.00,meteohub,2013-09-01 01:49:00,
2013-08-31 21:54:00,62.8,51.3,29.14,North,0,0.0,0.0,66,0.00,,,0.00,meteohub,2013-09-01 01:54:00,
2013-08-31 21:59:00,62.8,50.9,29.14,North,0,0.0,0.0,65,0.00,,,0.00,meteohub,2013-09-01 01:59:00,
2013-08-31 22:04:00,62.6,50.2,29.14,North,0,0.0,0.0,64,0.00,,,0.00,meteohub,2013-09-01 02:04:00,
2013-08-31 22:09:00,62.4,50.0,29.14,North,0,0.0,0.0,64,0.00,,,0.00,meteohub,2013-09-01 02:09:00,
2013-08-31 22:14:00,62.4,49.6,29.14,North,0,0.0,0.0,63,0.00,,,0.00,meteohub,2013-09-01 02:14:00,
2013-08-31 22:19:00,62.2,49.5,29.14,North,0,0.0,0.0,63,0.00,,,0.00,meteohub,2013-09-01 02:19:00,
2013-08-31 22:24:00,62.1,49.3,29.14,North,0,0.0,0.0,63,0.00,,,0.00,meteohub,2013-09-01 02:24:00,
2013-08-31 22:29:00,61.9,48.7,29.14,North,0,0.0,0.0,62,0.00,,,0.00,meteohub,2013-09-01 02:29:00,
2013-08-31 22:34:00,62.1,48.4,29.14,North,0,0.0,0.0,61,0.00,,,0.00,meteohub,2013-09-01 02:34:00,
2013-08-31 22:39:00,62.1,48.0,29.14,North,0,0.0,0.0,60,0.00,,,0.00,meteohub,2013-09-01 02:39:00,
2013-08-31 22:44:00,62.1,48.0,29.14,North,0,0.0,0.0,60,0.00,,,0.00,meteohub,2013-09-01 02:44:00,
2013-08-31 22:49:00,61.7,47.7,29.14,North,0,0.0,0.0,60,0.00,,,0.00,meteohub,2013-09-01 02:49:00,
2013-08-31 22:54:00,61.7,47.7,29.14,North,0,0.0,0.0,60,0.00,,,0.00,meteohub,2013-09-01 02:54:00,
2013-08-31 22:59:00,61.7,47.3,29.14,North,0,0.0,0.0,59,0.00,,,0.00,meteohub,2013-09-01 02:59:00,
2013-08-31 23:04:00,61.5,47.1,29.14,North,0,0.0,0.0,59,0.00,,,0.00,meteohub,2013-09-01 03:04:00,
2013-08-31 23:09:00,61.7,46.8,29.14,North,0,0.0,0.0,58,0.00,,,0.00,meteohub,2013-09-01 03:09:00,
2013-08-31 23:14:00,61.7,46.4,29.14,North,0,0.0,0.0,57,0.00,,,0.00,meteohub,2013-09-01 03:14:00,
2013-08-31 23:19:00,61.7,46.4,29.14,North,0,0.0,0.0,57,0.00,,,0.00,meteohub,2013-09-01 03:19:00,
2013-08-31 23:24:00,61.7,46.4,29.14,North,0,0.0,0.0,57,0.00,,,0.00,meteohub,2013-09-01 03:24:00,
2013-08-31 23:29:00,61.5,45.7,29.14,North,0,0.0,0.0,56,0.00,,,0.00,meteohub,2013-09-01 03:29:00,
2013-08-31 23:34:00,61.3,46.0,29.14,North,0,0.0,0.0,57,0.00,,,0.00,meteohub,2013-09-01 03:34:00,
2013-08-31 23:39:00,61.3,45.5,29.14,North,0,0.0,0.0,56,0.00,,,0.00,meteohub,2013-09-01 03:39:00,
2013-08-31 23:44:00,61.3,45.5,29.14,North,0,0.0,0.0,56,0.00,,,0.00,meteohub,2013-09-01 03:44:00,
2013-08-31 23:49:00,61.3,45.5,29.14,North,0,0.0,0.0,56,0.00,,,0.00,meteohub,2013-09-01 03:49:00,
2013-08-31 23:54:00,61.3,45.0,29.14,North,0,0.0,0.0,55,0.00,,,0.00,meteohub,2013-09-01 03:54:00,
2013-08-31 23:59:00,61.3,45.0,29.14,North,0,0.0,0.0,55,0.00,,,0.00,meteohub,2013-09-01 03:59:00,